Theta_e
319 319 319 319 319 317 316 317 317 317 318 317 317 318 317 318 319 318 319 320 321 322 322 322 322 321 322 322 323 323 335 330 334 354 356 351 351 351 352 350 349 347 345 343
319 320 319 318 318 317 317 318 318 317 317 317 317 318 319 319 320 320 321 321 321 322 322 323 322 323 322 324 323 328 329 332 338 352 356 354 351 351 351 352 349 348 345 344
319 319 318 318 317 318 318 318 317 317 317 316 316 317 319 318 319 321 322 323 322 324 322 323 325 323 323 325 325 328 329 330 334 346 352 353 354 350 350 351 351 349 346 346
319 318 319 318 318 319 319 317 317 317 318 319 316 318 320 321 323 322 322 322 323 321 322 324 324 325 324 324 323 329 328 330 334 334 350 353 353 353 349 350 350 350 348 348
320 320 319 319 318 319 319 317 317 318 318 319 317 320 323 323 324 322 321 323 322 322 323 323 323 322 324 323 323 328 325 331 331 339 342 353 353 352 351 350 349 349 349 348
320 320 318 318 319 318 318 317 317 318 318 323 319 327 328 324 325 325 322 323 321 322 322 322 324 322 322 322 323 322 331 335 339 345 341 352 353 352 351 349 349 348 349 349
319 318 319 318 320 319 317 319 325 324 326 323 319 324 324 324 323 323 322 320 320 320 321 323 323 322 323 323 323 323 333 340 343 344 347 350 352 353 352 350 348 347 348 349
321 321 318 319 318 317 317 318 324 329 326 322 318 319 325 323 322 321 322 320 321 320 322 324 324 325 325 325 324 325 333 340 344 345 346 346 350 351 351 349 347 347 347 348
322 321 318 317 317 317 318 322 321 322 324 323 319 318 323 322 320 320 321 322 323 324 324 323 324 328 327 327 328 328 328 338 341 345 344 344 347 348 348 347 347 346 347 347
320 325 318 317 317 317 318 319 324 326 328 324 317 318 328 323 319 321 322 323 322 322 322 323 323 327 325 325 325 325 325 326 336 341 343 344 343 346 347 347 348 346 345 345
319 324 321 318 318 317 318 321 322 323 323 325 328 320 319 320 321 320 320 320 320 321 321 322 322 321 322 323 324 325 328 325 325 327 342 342 341 342 344 345 347 348 347 344
319 321 322 318 316 317 318 316 319 326 321 322 322 322 317 318 319 320 319 318 317 318 319 320 320 321 321 322 322 323 326 328 327 324 329 342 339 341 342 345 346 347 345 343
318 323 322 318 317 317 317 316 315 316 320 323 323 322 319 321 319 318 318 317 317 317 317 319 319 321 320 322 321 321 322 324 325 328 325 334 338 342 343 345 346 342 342 341
318 320 321 323 320 318 318 316 316 317 324 320 321 322 321 318 317 316 317 317 316 316 317 317 318 320 320 319 321 321 321 322 324 325 328 328 340 337 339 343 343 338 337 335
319 321 319 320 318 318 318 318 318 317 320 325 322 319 317 317 316 316 316 316 316 316 316 316 317 318 320 320 319 320 320 320 322 324 328 329 341 338 339 341 338 335 334 331
319 321 319 321 320 320 320 318 318 320 318 318 318 317 315 315 312 311 311 313 313 314 313 314 315 316 317 318 319 318 320 320 320 323 325 330 338 338 337 334 329 328 326 322
321 323 324 325 320 319 323 319 319 318 318 322 322 317 314 312 313 312 311 311 312 312 311 312 312 315 315 315 316 318 319 318 320 322 324 328 336 336 333 331 326 323 322 320
322 324 326 326 321 324 317 319 319 321 318 318 318 313 313 311 310 308 307 307 307 307 308 309 310 312 312 312 313 315 317 318 321 321 323 325 335 336 334 329 325 322 320 318
324 321 325 324 324 320 318 319 321 320 318 318 314 312 309 308 305 305 305 306 306 306 306 307 308 308 310 310 313 315 316 318 320 321 322 324 333 334 333 328 322 318 316 315
317 318 324 323 325 326 321 319 317 319 320 314 310 307 306 304 304 306 305 303 302 302 303 304 305 307 308 310 311 313 316 318 320 320 321 328 330 329 327 321 316 315 313 309
320 319 321 322 323 321 319 318 317 321 319 310 308 306 303 303 303 302 301 301 302 303 304 303 302 304 306 308 310 313 314 318 319 319 321 331 327 324 321 316 314 313 310 308
320 322 322 322 321 322 320 319 318 312 309 309 305 303 302 301 301 301 302 305 308 311 313 311 304 304 304 307 310 313 314 317 318 320 326 327 323 320 317 313 311 310 308 305
319 319 320 319 322 321 320 320 313 312 307 304 302 301 300 300 301 302 306 309 316 313 310 308 305 304 305 307 310 312 313 317 318 321 328 323 320 318 314 312 309 307 305 303
316 316 321 320 318 320 319 316 311 307 304 303 301 300 300 300 302 305 309 311 317 313 311 309 306 305 305 307 310 310 314 316 317 326 324 321 318 314 313 310 309 306 304 303
318 316 318 321 319 316 315 311 310 306 304 302 300 300 300 301 304 307 308 310 318 317 314 310 309 309 309 308 308 311 314 314 321 324 321 319 315 314 311 310 308 306 305 303
318 319 320 320 319 314 311 311 307 305 302 301 300 301 300 301 304 306 307 310 316 314 314 315 315 316 312 312 314 314 314 317 323 320 317 315 313 311 307 306 306 305 304 302
Wind_Speed
10 11 14 18 11 15 19 21 24 25 25 23 24 24 26 25 25 25 23 22 22 22 19 23 25 29 27 29 24 28 31 28 27 23 23 33 34 27 26 29 27 36 32 29
14 13 16 21 15 17 21 24 24 24 23 23 25 28 28 27 27 22 21 22 22 23 21 18 24 24 28 23 27 23 27 26 24 22 24 27 34 32 33 24 29 37 35 33
16 20 19 10 16 19 22 21 21 25 26 26 26 28 25 28 27 16 16 20 18 20 20 20 18 23 23 22 20 24 29 27 28 24 22 24 23 34 36 29 27 36 35 32
15 12 21 22 21 19 21 19 22 23 23 20 22 23 23 19 20 11 17 17 22 17 15 14 15 16 23 22 26 23 27 29 26 32 23 23 20 24 30 31 24 33 32 30
20 19 21 18 22 14 17 20 24 29 26 25 28 14 16 21 15 15 12 13 9 12 14 13 17 18 24 26 25 24 31 29 30 29 28 24 22 24 29 31 27 28 28 29
21 18 19 22 13 11 20 22 26 22 18 15 25 4 8 10 8 26 13 15 8 4 11 14 13 23 23 27 28 29 31 30 31 26 30 24 23 24 24 32 30 28 28 30
20 19 19 17 19 17 24 22 10 11 8 14 16 4 11 13 24 28 24 11 14 14 10 11 11 11 14 21 25 29 27 27 27 23 23 22 22 24 25 28 30 29 30 30
15 18 12 25 23 24 24 17 10 10 11 20 19 10 5 10 12 22 25 28 16 8 9 13 13 13 19 8 27 23 26 26 26 27 24 22 22 20 21 25 28 31 33 32
12 11 26 24 21 19 19 12 6 8 18 13 14 19 8 10 4 11 15 24 25 19 17 4 8 9 16 21 24 12 11 28 26 26 24 24 20 18 20 23 22 33 35 28
10 21 14 18 21 18 18 6 5 6 6 6 13 19 7 7 17 9 5 8 17 15 16 23 15 8 11 11 15 13 11 12 12 23 22 23 20 16 18 18 22 26 26 21
15 2 15 23 18 21 15 12 11 5 6 5 8 9 18 21 14 13 18 15 13 4 8 13 7 9 8 6 7 14 11 7 10 8 16 21 20 17 15 18 18 21 19 21
8 6 15 26 27 22 8 13 9 3 12 14 13 19 17 17 23 18 15 16 20 22 14 7 13 3 9 7 5 7 9 13 9 15 16 23 22 23 17 18 17 13 15 20
3 2 9 17 7 8 20 21 18 19 17 18 13 14 13 21 19 18 20 22 19 20 23 19 10 15 5 9 7 5 5 6 13 13 18 20 25 20 19 17 13 9 14 19
4 11 14 14 21 22 24 24 24 18 10 19 17 23 21 17 19 22 24 22 22 21 21 19 18 12 10 11 7 10 7 6 9 16 16 16 25 23 19 13 9 19 28 27
3 9 15 18 24 26 27 27 25 18 20 12 9 22 19 19 23 24 25 22 24 22 20 19 16 14 12 14 15 15 10 8 8 12 18 16 23 24 18 18 22 29 28 29
6 11 15 25 24 26 28 23 16 18 19 17 18 22 19 20 20 22 25 26 24 23 23 22 22 16 16 18 15 11 14 8 8 11 16 17 11 27 23 27 33 35 35 34
18 16 17 20 18 22 18 4 9 10 12 9 11 24 18 20 26 28 28 25 25 26 26 24 25 19 14 20 24 16 13 10 10 11 15 21 15 26 28 30 31 35 36 35
16 17 14 14 18 14 14 15 9 11 14 16 18 11 21 27 27 29 26 25 26 24 24 22 20 18 21 24 27 23 17 13 11 12 17 20 21 28 30 30 27 26 29 30
16 11 7 6 12 19 16 8 2 3 18 15 5 19 22 25 23 33 14 16 18 21 20 17 22 23 23 27 27 21 16 16 16 15 19 15 18 29 29 28 31 27 32 32
7 11 7 12 15 12 14 15 14 12 12 7 12 14 21 20 14 22 25 26 25 23 22 20 26 23 23 22 21 23 19 19 17 17 21 15 24 30 32 34 36 32 32 34
13 13 14 13 15 15 9 22 16 9 13 13 15 18 19 17 14 24 29 28 26 24 23 31 28 24 24 21 20 21 23 21 18 21 19 23 28 32 36 36 37 38 33 36
9 6 10 7 13 8 25 14 4 5 10 16 16 18 20 22 24 25 27 27 27 22 13 22 17 21 28 25 23 22 21 20 20 22 17 28 33 34 36 41 36 36 36 35
6 7 12 7 7 20 15 13 10 15 7 12 18 19 20 22 24 26 23 25 13 8 6 3 14 16 23 24 21 18 23 20 21 17 29 34 35 35 40 40 39 35 35 35
16 15 8 16 10 19 18 16 17 10 12 17 18 19 19 21 22 25 21 21 12 2 1 8 13 11 15 21 19 17 23 21 19 23 31 36 36 35 37 35 36 36 35 33
15 17 9 13 15 17 17 18 14 16 15 17 18 19 20 19 22 18 20 20 7 5 2 8 7 7 12 20 22 23 24 26 19 30 34 35 36 35 32 30 32 32 31 38
11 3 4 8 15 5 14 15 17 14 17 18 18 20 16 16 19 17 15 15 8 7 8 4 1 10 21 22 24 28 31 27 31 32 34 35 37 33 33 34 33 25 30 28
Wind_Direction
321 289 272 297 339 318 307 297 293 291 296 307 302 302 300 301 287 277 271 271 269 270 257 250 237 240 248 228 242 211 196 213 218 211 214 213 227 211 216 200 196 189 186 197
290 296 313 319 318 295 287 287 292 305 316 316 307 296 288 279 273 276 280 266 257 249 258 247 240 236 232 225 224 203 198 204 213 215 209 213 215 216 217 214 199 185 187 193
309 302 297 307 284 298 299 301 318 314 311 298 294 286 295 298 293 301 312 305 256 267 238 239 232 223 225 220 222 200 193 200 214 221 217 212 221 215 219 220 196 182 190 192
301 289 310 302 301 300 299 326 307 301 301 293 298 293 283 316 330 278 271 284 303 251 258 243 240 220 212 225 217 209 193 199 212 220 214 203 205 206 215 223 212 186 187 190
290 302 290 289 288 310 310 304 294 299 296 297 290 297 330 331 327 313 285 251 276 317 312 270 216 230 213 211 222 212 198 200 207 215 218 200 206 218 205 212 205 201 184 190
282 295 307 290 333 306 280 292 305 309 303 293 295 18 293 291 215 254 249 248 294 344 306 285 276 211 217 208 211 223 188 194 199 210 208 203 202 207 217 215 211 205 196 193
314 301 287 347 341 323 324 303 309 296 307 284 325 201 239 356 346 349 345 344 328 313 301 346 325 225 207 210 204 208 189 187 191 199 204 206 207 207 207 215 207 201 203 198
302 315 334 349 325 306 296 299 300 298 301 299 306 273 23 5 338 333 347 344 344 298 13 20 338 338 15 299 192 210 185 185 187 191 193 205 211 208 215 222 221 209 207 206
322 286 315 305 299 313 312 314 335 265 258 280 281 285 39 326 283 332 10 340 322 354 353 324 240 18 30 351 6 0 194 181 184 187 189 193 205 211 219 224 224 218 216 214
307 306 313 307 322 292 294 322 260 224 305 314 302 309 138 272 340 308 295 206 266 340 355 331 1 46 8 6 344 335 340 2 184 190 184 181 187 209 225 230 233 228 222 214
319 299 289 304 309 314 317 322 310 357 258 303 313 306 326 320 7 339 332 329 325 359 12 296 309 339 338 348 343 350 344 284 295 301 190 184 194 200 219 230 235 238 233 216
39 296 297 303 297 275 222 322 276 252 279 276 283 283 292 317 328 340 326 328 338 331 300 279 296 208 273 283 330 331 332 333 274 260 268 205 196 178 205 227 231 237 225 207
24 281 309 311 298 354 317 318 313 295 300 287 285 283 310 328 313 330 320 312 318 315 310 311 305 298 290 202 215 240 296 291 304 284 254 235 190 166 186 219 211 166 154 156
224 269 264 263 284 298 302 299 294 288 275 289 277 295 294 304 328 332 324 319 312 307 295 292 296 275 291 239 216 210 208 266 275 296 283 256 184 179 195 195 178 143 157 155
203 261 271 267 285 290 292 291 293 313 296 300 287 292 312 324 329 323 307 305 302 290 291 298 286 297 291 278 218 248 219 200 268 280 296 272 183 175 171 154 145 146 144 145
188 266 281 281 283 286 292 304 330 311 303 315 314 299 312 342 338 317 303 299 301 298 299 300 293 272 287 304 272 297 207 210 224 263 281 284 201 153 161 148 138 143 139 132
271 274 282 280 295 304 298 346 267 316 316 319 297 302 345 321 314 307 303 299 287 279 280 275 267 273 267 283 291 255 259 214 201 244 264 278 178 149 147 140 139 139 142 142
254 259 275 285 299 284 304 46 7 320 304 293 303 330 313 320 314 298 296 287 284 279 278 279 277 275 272 268 275 279 241 246 213 217 254 267 171 157 148 138 130 132 137 134
207 256 294 274 287 285 295 51 293 294 295 285 337 320 316 310 309 296 271 269 269 273 277 275 271 262 262 257 258 263 245 234 217 207 241 263 178 166 149 134 130 138 130 126
319 292 260 289 288 295 314 22 350 304 298 46 337 305 309 314 306 294 313 306 293 279 269 263 261 267 241 246 242 242 250 220 209 209 232 198 163 151 144 133 131 129 128 122
320 311 285 284 296 288 342 7 356 334 314 331 316 312 309 301 286 290 295 294 288 280 268 254 240 236 245 235 234 232 229 219 201 213 223 162 152 144 139 135 133 131 126 122
301 291 299 309 297 284 352 347 327 272 303 312 315 315 307 300 300 299 298 300 297 288 285 240 215 211 220 223 234 219 213 217 199 207 178 146 144 139 135 132 130 126 125 119
295 304 299 280 275 296 315 345 350 333 327 321 317 311 305 304 304 304 306 308 299 335 331 335 184 193 213 206 218 218 203 200 198 195 152 148 142 138 137 134 132 126 127 125
302 311 302 307 294 310 324 347 341 353 323 319 312 308 308 302 305 306 309 312 304 283 359 158 175 188 195 206 203 225 200 186 208 155 148 143 137 137 138 136 138 136 135 134
290 293 285 278 305 322 316 334 337 337 325 318 314 312 305 309 310 315 314 320 358 10 18 159 175 189 190 199 206 220 186 193 178 149 144 137 134 133 131 133 142 143 145 147
277 316 317 302 320 290 295 331 344 331 326 321 316 316 314 309 314 323 317 319 351 21 22 13 31 211 212 207 201 176 186 189 157 137 134 134 133 130 127 121 117 126 135 141